STARLINK-34460 (66099 NORAD) Tracking and Keplerian Element Data

This shows tracking and keplerian element data for the satellite.

Feedback or suggestion? Click here.




ElementValue
Catalog66099
NameSTARLINK-34460
Epoch Orbit1070
Epoch Day353.7091775
Epoch Year2025
RAAN115.0621
Inclination53.1589
Eccentricity8.94E-05
Argument of Perigee77.1874
Mean Anonmoly282.9227
Mean Motion15.30196295
Decay Rate0.0001646
L11 66099U 25236P 25353.70917750 .00016460 00000+0 56668-3 0 9992
L22 66099 53.1589 115.0621 0000894 77.1874 282.9227 15.30196295 10705



Live tracking and technical data element details for STARLINK-34460 (NORAD 66099). STARLINK-34460 can be tracked NOW for your location showing map with azimuth and elevation plus other details from your city location.







IsCatalogInMostPopularTable: catalog: 66099, numindb: 7
Update: records affected: 1



GetName: 66099 STARLINK-34460

Hit Count: updated at: Tue, 21 Apr 2026 19:43:00 GMT